Location: Oberkirch
(48.5323°N, 8.0787°E)
Time: 17:40:36
(UTC+00:00)

CZ-2C R/B - Pass Details

Date: 08 November 2025
Orbit: 664 x 773 km, 98.4° (Epoch: 08 December)

Event Time Altitude Azimuth Distance (km) Brightness Sun altitude
Rises 02:35:21 0° 25° (NNE) 3,183 6.2 -37.9°
Reaches altitude 10° 02:38:02 10° 39° (NE) 2,273 5.5 -37.4°
Maximum altitude 02:42:06 24° 93° (E) 1,522 4.5 -36.8°
Enters shadow 02:42:24 24° 99° (E) 1,528 4.5 -36.8°
